[[{"header":{"parameterUnit":"m.s-1","parameterCategory":1,"la1":30.2991,"la2":30.254,"lo1":-89.0895,"lo2":-89.0444,"dy":0.0017,"dx":0.0017,"nx":28,"ny":28,"refTime":"2025-07-11T03:00:00:Z","depth":0,"parameterNumber":2,"parameterNumberName":"U-component_of_WINDS"},"data":[0,0,0,0,0,0,0,0,0,0,0,0,0,0,0,0,0,0,0,0,0,0,0,0,0,0,0,0,0,0,0,0,0,0,0,0,0,0,0,0,0,0,0,0,0,0,0,0,0,0,0,0,0,0,0,0,0,0,4.1353,4.1354,0,4.148,4.1481,4.1483,4.1411,4.1408,4.1404,4.1401,4.154,4.1547,4.1554,0,0,0,0,0,0,0,0,0,0,0,0,0,4.1058,4.1064,4.1353,4.1354,4.1356,4.148,4.1481,4.1483,4.1412,4.1408,4.1403,4.1399,4.1538,4.1546,4.1555,0,0,0,0,0,0,0,0,0,0,0,0,0,4.1186,4.1066,4.1352,4.1335,4.1335,4.1479,4.1481,4.1484,4.1413,4.1407,4.1402,4.1397,4.1535,4.1546,4.1556,4.1728,0,0,4.1588,4.1593,0,0,0,0,0,0,0,0,4.1179,4.1197,4.1336,4.1336,4.1336,4.1424,4.1428,4.1566,4.1414,4.1384,4.1401,4.1395,4.1507,4.1519,4.1555,4.1734,4.174,4.1589,4.1596,4.16,4.1603,0,0,0,0,0,0,0,4.117,4.1191,4.1403,4.1338,4.1338,4.1324,4.1336,4.1454,4.1474,4.1386,4.1381,4.1396,4.1506,4.1545,4.1558,4.1742,4.1589,4.1598,4.1605,4.1609,4.2072,4.2077,0,0,0,0,0,0,4.1161,4.1184,4.1399,4.1407,4.1242,4.1334,4.1347,4.1402,4.1472,4.1478,4.1401,4.1393,4.153,4.1546,4.1562,4.177,4.16,4.161,4.1616,4.2066,4.2073,4.208,0,0,0,0,0,0,4.1155,4.1181,4.1394,4.1294,4.132,4.1344,4.1406,4.1407,4.1446,4.1483,4.1487,4.1437,4.1526,4.1548,4.1687,4.1774,4.1615,4.1624,4.2059,4.2068,4.2076,4.2185,0,0,0,0,0,0,4.1147,4.1179,4.1242,4.1296,4.1326,4.1514,4.1411,4.1413,4.1463,4.1454,4.1518,4.1524,4.1524,4.1672,4.1698,4.1785,4.1632,4.2051,4.2063,4.2073,4.2174,4.2197,4.2217,0,0,0,0,0,4.1136,4.1269,4.1246,4.1272,4.1405,4.1519,4.1536,4.1531,4.147,4.1536,4.156,4.1522,4.176,4.1687,4.1715,4.1808,4.2046,4.206,4.2073,4.2165,4.2193,4.2216,0,0,0,0,0,0,4.1228,4.1276,4.125,4.1404,4.1458,4.1507,4.1589,4.156,4.1634,4.1623,4.1615,4.163,4.1776,4.1805,4.1723,4.1979,4.1894,4.1914,4.1954,4.1981,4.2002,4.1993,4.1641,0,0,0,0,0,4.1266,4.1351,4.139,4.1522,4.155,4.1565,4.1615,4.1605,4.1662,4.1685,4.1719,4.1779,4.1867,4.1925,4.2008,4.2178,4.2193,4.2256,4.2277,4.2294,4.2312,4.2406,4.2435,4.2124,4.2124,4.2123,0,0,4.1346,4.1382,4.1437,4.1542,4.1582,4.1674,4.1585,4.1686,4.1755,4.1701,4.1835,4.1863,4.1928,4.2084,4.2154,4.2113,4.2401,4.2311,4.2324,4.2333,4.2423,4.2453,4.2479,4.2133,4.2131,4.213,0,0,4.1538,4.1573,4.1688,4.173,4.1791,4.18,4.1828,4.1882,4.1897,4.203,4.1992,4.2076,4.2227,4.2276,4.2321,4.2533,4.2502,4.256,4.2672,4.2764,4.2788,4.281,4.2888,4.2916,4.2578,4.2578,4.2578,0,4.1631,4.1765,4.1752,4.1856,4.1904,4.1856,4.1975,4.2017,4.2104,4.214,4.2091,4.2281,4.2322,4.2489,4.2541,4.2578,4.2612,4.2554,4.2785,4.2807,4.2827,4.2902,4.2931,4.2585,4.2584,4.2583,4.2583,0,4.1877,4.1971,4.2057,4.2139,4.2196,4.2307,4.2314,4.2375,4.2361,4.2376,4.2514,4.2561,4.2653,4.2692,4.268,4.2859,4.2832,4.2785,4.27,4.2864,4.2934,4.2962,4.2595,4.2592,4.259,4.2588,0,0,4.2133,4.2205,4.2237,4.2274,4.2338,4.2413,4.2522,4.261,4.2663,4.2725,4.2819,4.2948,4.2905,4.2956,4.2949,4.303,4.3198,4.2973,4.2975,4.3015,4.3401,4.3438,4.3471,4.3176,4.3182,4.3186,4.3396,0,4.2331,4.2519,4.2511,4.2689,4.2778,4.2734,4.283,4.2882,4.2899,4.2979,4.2999,4.3092,4.3026,4.3057,4.3135,4.3161,4.3276,4.3145,4.3268,4.3272,4.3255,4.3507,4.3546,4.3742,4.3424,4.3428,4.3431,0,4.2588,4.2656,4.2842,4.2894,4.293,4.3017,4.3097,4.3173,4.3232,4.3239,4.3296,4.3276,4.3391,4.3301,4.3461,4.3373,4.3423,4.3443,4.3451,4.3464,4.3363,4.353,4.3805,4.3835,4.3474,4.3471,4.3468,0,4.2759,4.2897,4.3026,4.3059,4.3122,4.3184,4.3214,4.3267,4.3321,4.3392,4.3428,4.3512,4.356,4.3628,4.3633,4.3566,4.3796,4.3705,4.3808,4.3808,4.386,4.3858,4.415,4.3888,4.3888,4.3887,4.3887,0,4.2984,4.31,4.3104,4.3184,4.3314,4.3304,4.3434,4.3458,4.3506,4.3593,4.356,4.3643,4.3643,4.3729,4.3734,4.3868,4.3889,4.39,4.3901,4.3905,4.3904,4.3939,4.3927,4.3895,4.3894,4.3892,4.3891,0,4.3198,4.3204,4.3343,4.3391,4.3405,4.3499,4.3542,4.362,4.3633,4.3744,4.3769,4.3792,4.3891,4.3902,4.4018,4.4021,4.4183,4.4168,4.4163,4.4161,4.4264,4.4255,4.4591,4.4636,4.4343,4.4346,4.4348,0,4.3342,4.343,4.3486,4.354,4.3572,4.366,4.3714,4.3708,4.3767,4.384,4.3911,4.4005,4.4081,4.4241,4.4271,4.436,4.4348,4.446,4.4362,4.4363,4.4353,4.4349,4.4359,4.448,4.4483,4.4486,4.4488,0,4.3597,4.3596,4.3673,4.3752,4.3817,4.3879,4.3938,4.3985,4.3988,4.4055,4.4154,4.4212,4.4329,4.4425,4.4513,4.4547,4.452,4.4518,4.4547,4.4553,4.4547,4.4554,4.4217,4.4511,4.4509,4.4507,4.4506,4.4505,4.3783,4.386,4.3911,4.3999,4.4042,4.4097,4.4173,4.4195,4.4276,4.4369,4.4361,4.4472,4.453,4.4644,4.4685,4.4774,4.4737,4.4778,4.4789,4.4801,4.4812,4.4531,4.4789,4.4789,4.4788,4.4788,4.4787,0,4.4039,4.407,4.415,4.4232,4.4302,4.4265,4.4328,4.4391,4.4487,4.4542,4.4616,4.4731,4.4824,4.486,4.4951,4.5016,4.5006,4.504,4.5037,4.5046,4.4838,4.4805,4.5047,4.5047,4.5047,4.5047,4.5047,4.5047,4.4181,4.431,4.4315,4.4465,4.4496,4.4601,4.464,4.4693,4.4737,4.4865,4.4941,4.4962,4.5011,4.5106,4.5191,4.5199,4.5236,4.5277,4.5281,4.5086,4.506,4.5035,4.5004,4.5284,4.5284,4.5481,4.5483,4.5484]},{"header":{"parameterUnit":"m.s-1","parameterCategory":1,"la1":30.2991,"la2":30.254,"lo1":-89.0895,"lo2":-89.0444,"dy":0.0017,"dx":0.0017,"nx":28,"ny":28,"refTime":"2025-07-11T03:00:00:Z","depth":0,"parameterNumber":3,"parameterNumberName":"V-component_of_WINDS"},"data":[0,0,0,0,0,0,0,0,0,0,0,0,0,0,0,0,0,0,0,0,0,0,0,0,0,0,0,0,0,0,0,0,0,0,0,0,0,0,0,0,0,0,0,0,0,0,0,0,0,0,0,0,0,0,0,0,0,0,-0.5439,-0.5437,0,-0.5327,-0.5326,-0.5324,-0.5349,-0.5351,-0.5353,-0.5355,-0.5233,-0.5228,-0.5223,0,0,0,0,0,0,0,0,0,0,0,0,0,-0.5667,-0.5663,-0.5439,-0.5437,-0.5436,-0.5327,-0.5326,-0.5324,-0.5349,-0.5351,-0.5354,-0.5356,-0.5235,-0.5229,-0.5222,0,0,0,0,0,0,0,0,0,0,0,0,0,-0.5563,-0.5662,-0.5439,-0.5435,-0.5434,-0.5328,-0.5326,-0.5324,-0.5348,-0.5351,-0.5355,-0.5358,-0.5237,-0.5229,-0.5221,-0.5109,0,0,-0.5197,-0.5194,0,0,0,0,0,0,0,0,-0.5569,-0.5554,-0.5437,-0.5435,-0.5434,-0.5356,-0.5361,-0.5251,-0.5347,-0.538,-0.5355,-0.5359,-0.5271,-0.526,-0.5232,-0.5103,-0.5098,-0.5197,-0.5192,-0.5189,-0.5186,0,0,0,0,0,0,0,-0.5576,-0.5559,-0.5394,-0.5435,-0.5433,-0.5437,-0.5426,-0.5341,-0.5309,-0.5378,-0.5379,-0.5366,-0.527,-0.524,-0.5229,-0.5096,-0.5197,-0.519,-0.5185,-0.5182,-0.4872,-0.4868,0,0,0,0,0,0,-0.5586,-0.5565,-0.5398,-0.5391,-0.5511,-0.5431,-0.5418,-0.5377,-0.531,-0.5303,-0.5364,-0.5368,-0.5251,-0.5238,-0.5225,-0.509,-0.5189,-0.5181,-0.5177,-0.4875,-0.4871,-0.4867,0,0,0,0,0,0,-0.5591,-0.5571,-0.5402,-0.5479,-0.5457,-0.5423,-0.5377,-0.5373,-0.5343,-0.5299,-0.5293,-0.5339,-0.5253,-0.5236,-0.5139,-0.5086,-0.5178,-0.5171,-0.4879,-0.4874,-0.4869,-0.4819,0,0,0,0,0,0,-0.5597,-0.5572,-0.553,-0.5478,-0.5453,-0.5319,-0.5374,-0.5369,-0.533,-0.5334,-0.5274,-0.5267,-0.5255,-0.515,-0.5131,-0.5077,-0.5164,-0.4884,-0.4877,-0.4871,-0.4825,-0.4812,-0.4802,0,0,0,0,0,-0.5605,-0.5518,-0.5528,-0.5508,-0.5401,-0.5316,-0.5302,-0.5292,-0.5326,-0.5283,-0.5255,-0.5269,-0.5096,-0.514,-0.5119,-0.5061,-0.4887,-0.4879,-0.4871,-0.483,-0.4815,-0.4802,0,0,0,0,0,0,-0.5562,-0.5511,-0.5521,-0.5415,-0.5371,-0.5321,-0.5266,-0.5276,-0.5218,-0.5224,-0.5212,-0.5198,-0.5099,-0.507,-0.5121,-0.495,-0.4996,-0.4983,-0.4972,-0.4957,-0.4946,-0.4954,-0.5158,0,0,0,0,0,-0.5541,-0.5479,-0.5437,-0.5347,-0.5325,-0.5299,-0.5262,-0.5259,-0.521,-0.519,-0.5156,-0.5106,-0.5041,-0.4998,-0.4935,-0.4822,-0.4809,-0.4772,-0.476,-0.4751,-0.4739,-0.4678,-0.4662,-0.4841,-0.4841,-0.4841,0,0,-0.5495,-0.546,-0.5421,-0.5338,-0.5303,-0.5237,-0.5283,-0.5211,-0.5162,-0.5178,-0.5085,-0.5058,-0.5002,-0.4897,-0.4849,-0.487,-0.4688,-0.4741,-0.4734,-0.4727,-0.4669,-0.4652,-0.4636,-0.4836,-0.4837,-0.4838,0,0,-0.5379,-0.5346,-0.5269,-0.5234,-0.5181,-0.5165,-0.5147,-0.5096,-0.508,-0.4987,-0.4999,-0.4939,-0.4826,-0.4787,-0.4752,-0.4624,-0.4634,-0.4603,-0.4542,-0.4482,-0.4468,-0.4456,-0.441,-0.4393,-0.4592,-0.4592,-0.4592,0,-0.5328,-0.5232,-0.5227,-0.5155,-0.5118,-0.5134,-0.5055,-0.502,-0.4948,-0.4922,-0.4948,-0.4809,-0.4772,-0.4658,-0.4628,-0.4599,-0.4576,-0.4609,-0.4471,-0.4458,-0.4446,-0.4403,-0.4385,-0.4589,-0.4589,-0.459,-0.459,0,-0.5172,-0.5105,-0.5048,-0.4983,-0.4939,-0.4864,-0.4846,-0.4803,-0.4804,-0.4785,-0.469,-0.4648,-0.4578,-0.4551,-0.4549,-0.4437,-0.4452,-0.4475,-0.452,-0.4426,-0.4385,-0.4368,-0.4584,-0.4585,-0.4586,-0.4587,0,0,-0.5021,-0.4957,-0.4936,-0.4908,-0.4852,-0.4799,-0.4725,-0.4659,-0.4622,-0.4573,-0.4509,-0.4416,-0.4438,-0.4398,-0.4393,-0.4341,-0.4242,-0.437,-0.4368,-0.4347,-0.4116,-0.4099,-0.4079,-0.425,-0.4247,-0.4244,-0.4121,0,-0.49,-0.4771,-0.4766,-0.4648,-0.4586,-0.4602,-0.4537,-0.4495,-0.4476,-0.442,-0.4398,-0.4332,-0.4366,-0.4342,-0.4292,-0.4265,-0.4196,-0.4274,-0.4189,-0.4186,-0.4202,-0.4058,-0.4038,-0.3923,-0.4104,-0.4102,-0.41,0,-0.4739,-0.4689,-0.4566,-0.4522,-0.4495,-0.4437,-0.4378,-0.4324,-0.4277,-0.4267,-0.4225,-0.4228,-0.415,-0.4201,-0.4093,-0.4147,-0.4112,-0.4094,-0.409,-0.408,-0.4136,-0.4043,-0.3886,-0.3869,-0.4074,-0.4076,-0.4078,0,-0.4642,-0.4543,-0.4457,-0.4432,-0.4378,-0.4337,-0.4312,-0.4269,-0.4231,-0.4178,-0.4153,-0.4091,-0.4057,-0.4008,-0.3994,-0.4032,-0.3887,-0.3936,-0.3876,-0.3876,-0.3842,-0.3844,-0.3677,-0.3822,-0.3822,-0.3823,-0.3823,0,-0.4506,-0.443,-0.4413,-0.436,-0.4275,-0.427,-0.4186,-0.4163,-0.4125,-0.4067,-0.4077,-0.4021,-0.4007,-0.3949,-0.3937,-0.385,-0.3835,-0.3823,-0.3821,-0.3822,-0.3823,-0.3797,-0.3805,-0.3818,-0.3819,-0.382,-0.3821,0,-0.4382,-0.4368,-0.4276,-0.4234,-0.4222,-0.4161,-0.4124,-0.4072,-0.4056,-0.3983,-0.3965,-0.3938,-0.3871,-0.3853,-0.3771,-0.3763,-0.3661,-0.3666,-0.3677,-0.3677,-0.3617,-0.3623,-0.3426,-0.34,-0.3563,-0.3562,-0.356,0,-0.4295,-0.4238,-0.4191,-0.4154,-0.4129,-0.4069,-0.4031,-0.4024,-0.3984,-0.3928,-0.3883,-0.3817,-0.3764,-0.3655,-0.3627,-0.3564,-0.3568,-0.3504,-0.3558,-0.3562,-0.3566,-0.357,-0.3564,-0.3492,-0.3491,-0.3489,-0.3488,0,-0.4143,-0.414,-0.4086,-0.403,-0.3986,-0.3941,-0.3898,-0.3866,-0.3853,-0.3807,-0.374,-0.3699,-0.3618,-0.3552,-0.349,-0.3463,-0.3472,-0.3472,-0.3454,-0.3454,-0.3463,-0.3457,-0.3648,-0.3475,-0.3477,-0.3478,-0.3478,-0.3479,-0.4034,-0.3985,-0.3945,-0.3885,-0.3853,-0.3813,-0.3763,-0.3743,-0.3687,-0.3622,-0.3621,-0.3548,-0.3504,-0.3422,-0.3391,-0.3333,-0.3352,-0.3327,-0.332,-0.3314,-0.3309,-0.3474,-0.3322,-0.3322,-0.3322,-0.3322,-0.3323,0,-0.3882,-0.3858,-0.3804,-0.3745,-0.3698,-0.3716,-0.367,-0.3628,-0.3565,-0.3524,-0.3473,-0.3396,-0.3333,-0.3302,-0.324,-0.3199,-0.3202,-0.3182,-0.3184,-0.3178,-0.3295,-0.3316,-0.3181,-0.3181,-0.3181,-0.3181,-0.3181,-0.3181,-0.3797,-0.3714,-0.3707,-0.3608,-0.3584,-0.3515,-0.3487,-0.345,-0.3418,-0.3333,-0.3282,-0.3264,-0.3226,-0.3162,-0.3105,-0.3097,-0.3073,-0.3051,-0.3046,-0.3155,-0.317,-0.3183,-0.3203,-0.3047,-0.3046,-0.2934,-0.2933,-0.2932]}]]